This demonstration page uses our WeatherBlox Daily Observations layout. Learn more.

Left ArrowRight Arrow

39.92423, -83.80882

Hourly Observations for August 21, 2022

Temp ( °F °C ) Dew Point ( °F °C ) Humidity (%) Winds ( mph kmh ) Pressure ( in mb ) Visibility ( mi km ) Precip ( " mm )
12:56 am 00:56 Clear N/A N/A N/A Calm 30.08 1019 8 13 0.00 0.00
1:56 am 01:56 Clear N/A N/A N/A SE 6 9 30.06 1018 8 13 0.00 0.00
2:56 am 02:56 Mostly Clear 66 18.9 N/A N/A S 7 11 29.99 1016 10 16 0.00 0.00
3:56 am 03:56 Clear N/A N/A N/A S 5 7 30.04 1017 7 11 0.00 0.00
4:56 am 04:56 Hazy N/A N/A N/A SSW 3 6 30.04 1017 6 10 0.00 0.00
5:56 am 05:56 Hazy N/A N/A N/A S 5 7 30.02 1017 5 8 0.00 0.00
6:31 am 06:31 Hazy N/A N/A N/A SSE 6 9 30.04 1017 5 8 0.00 0.00
6:56 am 06:56 Mostly Cloudy with Haze N/A N/A N/A SE 3 6 30.07 1018 4 6 0.00 0.00
7:22 am 07:22 Cloudy with Mist and Fog N/A N/A N/A SE 3 6 30.07 1018 3 5 0.00 0.00
7:56 am 07:56 Cloudy with Haze N/A N/A N/A SSE 6 9 30.07 1018 4 6 0.00 0.00
8:19 am 08:19 Cloudy with Haze N/A N/A N/A SE 3 6 30.07 1018 4 6 0.00 0.00
8:56 am 08:56 Cloudy with Haze 68 20 N/A N/A SSE 6 9 30.00 1016 4 6 0.00 0.00
9:18 am 09:18 Hazy 70 21 N/A N/A SSE 6 9 29.98 1015 4 6 0.01 0.13
9:38 am 09:38 Mostly Cloudy with Haze 72 22 N/A N/A S 7 11 29.97 1015 5 8 0.01 0.13
9:49 am 09:49 Mostly Cloudy 72 22 N/A N/A S 6 9 29.97 1015 7 11 0.01 0.13
9:56 am 09:56 Mostly Cloudy 72 22.2 N/A N/A S 5 7 30.00 1016 8 13 0.01 0.13
10:04 am 10:04 Mostly Cloudy 72 22 N/A N/A SSE 8 13 29.97 1015 9 14 0.00 0.00
10:20 am 10:20 Mostly Cloudy 72 22 N/A N/A S 6 9 29.97 1015 9 14 0.00 0.00
10:56 am 10:56 Cloudy 73 22.8 N/A N/A S 8 13 29.97 1015 8 13 0.01 0.13
11:14 am 11:14 Cloudy 73 23 N/A N/A S 6 9 29.98 1015 9 14 0.00 0.00
11:24 am 11:24 Cloudy 73 23 N/A N/A VRB 7 11 29.98 1015 9 14 0.00 0.00
11:31 am 11:31 Cloudy 73 23 N/A N/A S 7 11 29.98 1015 9 14 0.00 0.00
11:38 am 11:38 Cloudy 73 23 N/A N/A VRB 7 11 29.98 1015 9 14 0.00 0.00
11:56 am 11:56 Cloudy 76 24.4 75 23.9 97 97 S 7 11 29.96 1015 10 16 0.00 0.00
12:13 pm 12:13 Cloudy with Nearby Thunderstorms 75 24 73 23 94 94 VRB 7 11 29.96 1014 10 16 0.00 0.00
12:22 pm 12:22 Cloudy with Nearby Thunderstorms 75 24 73 23 94 94 S 9 15 29.95 1014 10 16 0.00 0.00
12:56 pm 12:56 Cloudy with Thunderstorms 72 22.2 72 22.2 100 100 SSW 3 6 29.94 1014 8 13 0.02 0.51
1:13 pm 13:13 Cloudy with Thunderstorms 72 22 N/A N/A WNW 7 11 29.94 1014 6 10 0.01 0.25
1:56 pm 13:56 Cloudy with Thunderstorms 72 22.2 N/A N/A SW 9 15 29.95 1014 7 11 0.01 0.25
2:38 pm 14:38 Mostly Cloudy 72 22 N/A N/A S 6 9 29.94 1014 10 16 0.01 0.13
2:45 pm 14:45 Cloudy 72 22 N/A N/A S 5 7 29.94 1014 10 16 0.01 0.13
2:56 pm 14:56 Cloudy 72 22.2 N/A N/A SSE 7 11 29.96 1014 10 16 0.01 0.13
3:04 pm 15:04 Cloudy with Nearby Thunderstorms 72 22 N/A N/A S 7 11 29.92 1013 10 16 0.00 0.00
3:56 pm 15:56 Cloudy with Nearby Thunderstorms N/A N/A N/A NE 7 11 30.01 1016 10 16 0.07 1.78
4:09 pm 16:09 Cloudy 72 22 N/A N/A E 7 11 29.91 1013 10 16 0.00 0.00
4:53 pm 16:53 Mostly Sunny 73 23 73 23 100 100 SSE 9 15 29.91 1013 10 16 0.00 0.00
4:56 pm 16:56 Mostly Sunny 74 23.3 74 23.3 100 100 SE 12 19 29.91 1013 10 16 0.00 0.00
5:56 pm 17:56 Partly Cloudy with Nearby Thunderstorms 71 21.7 71 21.7 100 100 S 7 11 29.88 1012 10 16 0.01 0.13
6:56 pm 18:56 Cloudy with Light Rain N/A N/A N/A NNW 9 15 30.00 1016 10 16 0.05 1.27
7:15 pm 19:15 Cloudy with Nearby Thunderstorms N/A N/A N/A undefined N/A 30.00 1016 9 14 0.01 0.25
7:32 pm 19:32 Cloudy N/A N/A N/A ENE 8 13 29.98 1015 10 16 0.01 0.25
7:56 pm 19:56 Partly Cloudy N/A N/A N/A ESE 3 6 29.98 1015 10 16 0.02 0.51
8:23 pm 20:23 Mostly Cloudy with Haze N/A N/A N/A NE 3 6 29.99 1016 4 6 0.01 0.25
8:49 pm 20:49 Mostly Cloudy N/A N/A N/A Calm 29.99 1016 9 14 0.02 0.51
8:56 pm 20:56 Mostly Cloudy N/A N/A N/A Calm 29.99 1016 9 14 0.02 0.51
9:13 pm 21:13 Mostly Cloudy with Haze N/A N/A N/A Calm 30.00 1016 6 10 0.00 0.00
9:56 pm 21:56 Cloudy N/A N/A N/A NW 7 11 30.00 1016 8 13 0.00 0.00
10:06 pm 22:06 Cloudy N/A N/A N/A Calm 30.00 1016 9 14 0.00 0.00
10:17 pm 22:17 Mostly Cloudy N/A N/A N/A Calm 30.00 1016 8 13 0.00 0.00
10:35 pm 22:35 Mostly Cloudy with Haze N/A N/A N/A E 3 6 30.00 1016 5 8 0.00 0.00
10:56 pm 22:56 Mostly Cloudy with Haze N/A N/A N/A SSE 5 7 30.00 1016 5 8 0.00 0.00
11:04 pm 23:04 Hazy N/A N/A N/A Calm 30.00 1016 4 6 0.00 0.00
11:16 pm 23:16 Mostly Cloudy with Mist and Fog N/A N/A N/A SSW 3 6 30.00 1016 1 1 0.00 0.00
11:25 pm 23:25 Mostly Cloudy with Fog N/A N/A N/A SSW 5 7 30.00 1016 1 1 0.00 0.00
11:42 pm 23:42 Mostly Cloudy with Mist and Fog N/A N/A N/A SW 6 9 30.00 1016 1 1 0.00 0.00
11:47 pm 23:47 Mostly Cloudy with Fog N/A N/A N/A SW 5 7 30.00 1016 0 0 0.00 0.00
11:56 pm 23:56 Mostly Cloudy with Fog N/A N/A N/A SW 3 6 30.00 1016 0 0 0.00 0.00

Powered by AerisWeather